Date String (YYYY-MM-DD hh:mm:ss) UTC,Instrument flags,absolute air pressure of the measurement (hPa),sample flow rate (lpm),inlet stack bypass flow (lpm),air temperature of the measurement (°C),ambient temperature measured by the external sensor (°C),aerosol sample conditioner tube jacket temperature (°C),OPC LED temperature (°C),internal box temperature (°C),relative humidity of the measurement (%),span deviation,mass concentration of particles derived from Lorenz-Mie calculation of OPC scattering (μg/m³),mass concentration of particles derived from Lorenz-Mie calculation of OPC scattering (μg/m³),mass concentration of particles derived from Lorenz-Mie calculation of OPC scattering (μg/m³)
DateTimeUTC,F1_M11,P_M11,Q1_M11,Q2_M11,T1_M11,T2_M11,T3_M11,T4_M11,T5_M11,U1_M11,ZSPAN_M11,X0_M11,X2_M11,X1_M11
2023-08-31 16:00:00,SystemResetWarning,0829.8,5.00,000.00,025.7,023.8,000.0,033.9,027.3,26.2,0000.0,0008.78,0003.32,0002.83
2023-08-31 16:01:00,SystemResetWarning,0829.9,5.00,000.00,025.7,024.1,000.0,034.0,027.4,26.8,0000.0,0008.20,0003.33,0002.84
2023-08-31 16:02:00,SystemResetWarning,0829.9,5.00,000.00,025.8,024.4,000.0,034.0,027.5,27.4,0000.0,0008.30,0003.38,0002.85
2023-08-31 16:03:00,SystemResetWarning,0829.8,4.99,000.00,025.8,024.0,000.0,034.0,027.4,27.3,0000.0,0008.28,0003.40,0002.89
2023-08-31 16:04:00,SystemResetWarning,0829.8,5.00,000.00,025.7,022.8,000.0,033.9,027.0,24.8,0000.0,0007.95,0003.45,0002.91
2023-08-31 16:05:00,SystemResetWarning,0829.8,5.02,000.00,025.6,022.7,000.0,033.8,027.0,25.8,0000.0,0007.92,0003.45,0002.92
2023-08-31 16:06:00,SystemResetWarning,0829.8,4.99,000.00,025.6,023.0,000.0,033.9,027.1,27.0,0000.0,0008.45,0003.49,0002.95
2023-08-31 16:07:00,SystemResetWarning,0829.8,5.00,000.00,025.6,023.4,000.0,033.9,027.1,27.0,0000.0,0008.88,0003.49,0002.96
2023-08-31 16:08:00,SystemResetWarning,0829.9,5.01,000.00,025.6,023.8,000.0,033.9,027.3,27.1,0000.0,0009.25,0003.52,0002.98
2023-08-31 16:09:00,SystemResetWarning,0829.9,5.00,000.00,025.7,024.1,000.0,033.9,027.4,26.7,0000.0,0010.02,0003.57,0003.03
2023-08-31 16:10:00,SystemResetWarning,0829.9,5.00,000.00,025.7,024.4,000.0,034.0,027.5,26.0,0000.0,0009.78,0003.58,0003.05
2023-08-31 16:11:00,SystemResetWarning,0829.9,4.99,000.00,025.8,024.0,000.0,033.9,027.3,26.0,0000.0,0009.25,0003.59,0003.06
2023-08-31 16:12:00,SystemResetWarning,0829.9,5.00,000.00,025.7,022.8,000.0,033.9,027.0,25.9,0000.0,0009.46,0003.58,0003.06
2023-08-31 16:13:00,SystemResetWarning,0829.9,5.02,000.00,025.6,022.7,000.0,033.8,027.1,27.1,0000.0,0010.07,0003.56,0003.06
2023-08-31 16:14:00,SystemResetWarning,0829.9,4.99,000.00,025.6,023.1,000.0,033.8,027.1,26.8,0000.0,0010.84,0003.59,0003.07
2023-08-31 16:15:00,SystemResetWarning,0829.9,5.00,000.00,025.6,023.4,000.0,033.9,027.2,26.1,0000.0,0011.62,0003.62,0003.08
2023-08-31 16:16:00,SystemResetWarning,0829.9,5.01,000.00,025.6,023.9,000.0,033.9,027.4,24.5,0000.0,0012.19,0003.67,0003.10
2023-08-31 16:17:00,SystemResetWarning,0829.9,5.01,000.00,025.7,024.2,000.0,033.9,027.5,23.2,0000.0,0011.93,0003.68,0003.11
2023-08-31 16:18:00,SystemResetWarning,0829.9,4.99,000.00,025.7,023.8,000.0,033.9,027.3,24.0,0000.0,0011.43,0003.68,0003.11
2023-08-31 16:19:00,SystemResetWarning,0829.9,4.99,000.00,025.6,022.8,000.0,033.8,027.0,25.3,0000.0,0011.32,0003.68,0003.10
2023-08-31 16:20:00,SystemResetWarning,0829.9,5.02,000.00,025.6,022.9,000.0,033.8,027.1,25.2,0000.0,0010.67,0003.66,0003.09
2023-08-31 16:21:00,SystemResetWarning,0829.9,4.99,000.00,025.6,023.2,000.0,033.8,027.2,24.7,0000.0,0010.57,0003.66,0003.08
2023-08-31 16:22:00,SystemResetWarning,0829.9,4.99,000.00,025.6,023.6,000.0,033.8,027.2,24.9,0000.0,0010.66,0003.69,0003.09
2023-08-31 16:23:00,SystemResetWarning,0829.9,5.01,000.00,025.6,024.0,000.0,033.9,027.3,24.4,0000.0,0010.81,0003.75,0003.10
2023-08-31 16:24:00,SystemResetWarning,0829.9,5.00,000.00,025.7,024.3,000.0,033.9,027.5,24.0,0000.0,0010.33,0003.75,0003.11
2023-08-31 16:25:00,SystemResetWarning,0829.9,4.98,000.00,025.7,023.7,000.0,033.9,027.2,24.8,0000.0,0009.34,0003.71,0003.11
2023-08-31 16:26:00,SystemResetWarning,0829.9,5.01,000.00,025.6,022.6,000.0,033.8,026.9,23.6,0000.0,0008.67,0003.66,0003.11
2023-08-31 16:27:00,SystemResetWarning,0829.8,5.01,000.00,025.6,022.7,000.0,033.7,027.0,23.4,0000.0,0008.20,0003.67,0003.10
2023-08-31 16:28:00,SystemResetWarning,0829.9,4.99,000.00,025.5,023.0,000.0,033.8,027.0,24.0,0000.0,0008.49,0003.69,0003.10
2023-08-31 16:29:00,SystemResetWarning,0829.9,5.00,000.00,025.6,023.4,000.0,033.8,027.1,25.5,0000.0,0008.70,0003.68,0003.11
2023-08-31 16:30:00,SystemResetWarning,0829.9,5.00,000.00,025.6,023.8,000.0,033.8,027.3,24.8,0000.0,0008.54,0003.70,0003.12
2023-08-31 16:31:00,SystemResetWarning,0829.9,5.00,000.00,025.6,024.2,000.0,033.8,027.4,24.3,0000.0,0008.25,0003.70,0003.12
2023-08-31 16:32:00,SystemResetWarning,0829.9,5.00,000.00,025.7,024.5,000.0,033.9,027.5,24.4,0000.0,0008.27,0003.69,0003.12
2023-08-31 16:33:00,SystemResetWarning,0829.9,4.99,000.00,025.7,023.9,000.0,033.9,027.3,25.9,0000.0,0008.37,0003.68,0003.11
2023-08-31 16:34:00,SystemResetWarning,0829.9,5.00,000.00,025.6,022.8,000.0,033.8,026.9,26.8,0000.0,0009.34,0003.67,0003.10
2023-08-31 16:35:00,SystemResetWarning,0829.9,5.02,000.00,025.6,022.8,000.0,033.8,027.0,25.8,0000.0,0009.72,0003.69,0003.08
2023-08-31 16:36:00,SystemResetWarning,0829.9,5.00,000.00,025.6,023.1,000.0,033.8,027.0,25.5,0000.0,0010.45,0003.71,0003.09
2023-08-31 16:37:00,SystemResetWarning,0830.0,4.99,000.00,025.6,023.5,000.0,033.8,027.1,25.2,0000.0,0011.57,0003.72,0003.09
2023-08-31 16:38:00,SystemResetWarning,0829.9,5.00,000.00,025.6,023.9,000.0,033.8,027.3,23.8,0000.0,0012.01,0003.73,0003.10
2023-08-31 16:39:00,SystemResetWarning,0829.9,5.00,000.00,025.7,024.2,000.0,033.8,027.4,23.7,0000.0,0011.79,0003.70,0003.09
2023-08-31 16:40:00,SystemResetWarning,0829.9,4.99,000.00,025.7,023.6,000.0,033.8,027.2,25.0,0000.0,0011.62,0003.72,0003.10
2023-08-31 16:41:00,SystemResetWarning,0829.9,5.00,000.00,025.6,022.6,000.0,033.8,026.8,24.5,0000.0,0011.57,0003.75,0003.10
2023-08-31 16:42:00,SystemResetWarning,0830.0,5.01,000.00,025.5,022.6,000.0,033.7,026.9,24.8,0000.0,0011.55,0003.74,0003.10
2023-08-31 16:43:00,SystemResetWarning,0830.0,5.00,000.00,025.5,023.0,000.0,033.7,026.9,24.2,0000.0,0011.66,0003.76,0003.11
2023-08-31 16:44:00,SystemResetWarning,0830.0,4.98,000.00,025.5,023.4,000.0,033.8,027.1,23.8,0000.0,0012.05,0003.81,0003.11
2023-08-31 16:45:00,SystemResetWarning,0830.0,5.00,000.00,025.5,023.8,000.0,033.8,027.2,24.9,0000.0,0011.30,0003.83,0003.12
2023-08-31 16:46:00,SystemResetWarning,0830.0,5.01,000.00,025.6,024.1,000.0,033.8,027.3,25.2,0000.0,0011.03,0003.84,0003.13
2023-08-31 16:47:00,SystemResetWarning,0830.0,5.00,000.00,025.6,024.1,000.0,033.8,027.3,25.3,0000.0,0010.62,0003.85,0003.14
2023-08-31 16:48:00,SystemResetWarning,0830.0,4.99,000.00,025.6,022.9,000.0,033.8,026.9,24.7,0000.0,0010.69,0003.88,0003.14
2023-08-31 16:49:00,SystemResetWarning,0830.0,5.02,000.00,025.5,022.6,000.0,033.7,026.8,25.0,0000.0,0010.63,0003.89,0003.14
2023-08-31 16:50:00,SystemResetWarning,0830.0,5.00,000.00,025.5,022.9,000.0,033.7,027.0,25.6,0000.0,0010.79,0003.89,0003.14
2023-08-31 16:51:00,SystemResetWarning,0830.0,5.00,000.00,025.5,023.3,000.0,033.7,027.1,25.9,0000.0,0011.48,0003.90,0003.16
2023-08-31 16:52:00,SystemResetWarning,0830.0,5.01,000.00,025.5,023.7,000.0,033.7,027.2,25.2,0000.0,0011.55,0003.90,0003.19
2023-08-31 16:53:00,SystemResetWarning,0830.0,5.00,000.00,025.6,024.1,000.0,033.8,027.3,25.3,0000.0,0011.58,0003.95,0003.21
2023-08-31 16:54:00,SystemResetWarning,0830.0,4.99,000.00,025.6,024.0,000.0,033.8,027.3,25.9,0000.0,0011.50,0004.00,0003.25
2023-08-31 16:55:00,SystemResetWarning,0829.9,4.99,000.00,025.6,022.8,000.0,033.7,026.9,26.6,0000.0,0011.11,0003.98,0003.28
2023-08-31 16:56:00,SystemResetWarning,0829.9,5.02,000.00,025.5,022.5,000.0,033.6,026.9,27.5,0000.0,0011.07,0004.02,0003.33
2023-08-31 16:57:00,SystemResetWarning,0829.9,5.00,000.00,025.5,022.9,000.0,033.6,026.9,28.5,0000.0,0011.58,0004.05,0003.37
2023-08-31 16:58:00,SystemResetWarning,0829.9,5.00,000.00,025.5,023.2,000.0,033.7,027.0,29.2,0000.0,0012.18,0004.10,0003.40
2023-08-31 16:59:00,SystemResetWarning,0829.9,5.01,000.00,025.5,023.6,000.0,033.7,027.1,29.2,0000.0,0011.30,0004.15,0003.44
